Tracking 19170 objects as of 23-May-2018
HD Live streaming from Space Station
objects crossing your sky now

NOAA 16 DEB

Track NOAA 16 DEB now!
10-day predictions


NORAD ID: 42419
Int'l Code: 2000-055TP
Perigee: 834.2 km
Apogee: 884.1 km
Inclination: 98.9 °
Period: 102.0 minutes
Semi major axis: 7230 km
RCS: Unknown
Launch date: September 21, 2000
Source: United States (US)
Launch site: AIR FORCE WESTERN TEST RANGE (AFWTR)

Note: This is SATELLITE DEBRIS
aabbcc
Your satellite tracking list
Your tracking list is empty




NASA's NSSDC Master Catalog

Two Line Element Set (TLE):
1 42419U 00055TP  18143.13281560  .00001199  00000-0  67319-3 0  9992
2 42419  98.8852 214.8012 0034541 170.9223 189.2580 14.12159354113543
Source of the keplerian elements: AFSPC